[[{"header":{"parameterUnit":"m.s-1","parameterCategory":1,"la1":30.2991,"la2":30.254,"lo1":-89.0895,"lo2":-89.0444,"dy":0.0017,"dx":0.0017,"nx":28,"ny":28,"refTime":"2024-03-29T09:00:00:Z","depth":0,"parameterNumber":2,"parameterNumberName":"U-component_of_WINDS"},"data":[0,0,0,0,0,0,0,0,0,0,0,0,0,0,0,0,0,0,0,0,0,0,0,0,0,0,0,0,0,0,0,0,0,0,0,0,0,0,0,0,0,0,0,0,0,0,0,0,0,0,0,0,0,0,0,0,0,0,-0.9739,-0.9738,0,-0.9709,-0.9709,-0.9708,-0.9691,-0.9691,-0.9691,-0.9691,-0.9659,-0.9658,-0.9657,0,0,0,0,0,0,0,0,0,0,0,0,0,-0.9779,-0.9778,-0.9739,-0.9738,-0.9738,-0.9709,-0.9709,-0.9708,-0.9691,-0.9691,-0.9691,-0.9691,-0.9659,-0.9658,-0.9657,0,0,0,0,0,0,0,0,0,0,0,0,0,-0.9757,-0.9778,-0.9739,-0.9726,-0.9725,-0.9709,-0.9708,-0.9708,-0.9691,-0.9691,-0.9691,-0.9691,-0.9659,-0.9658,-0.9657,-0.9651,0,0,-0.9653,-0.9653,0,0,0,0,0,0,0,0,-0.9758,-0.9755,-0.9728,-0.9727,-0.9725,-0.9704,-0.9711,-0.9689,-0.9691,-0.9704,-0.9691,-0.9691,-0.9673,-0.9671,-0.9666,-0.965,-0.9648,-0.9653,-0.9652,-0.9652,-0.9651,0,0,0,0,0,0,0,-0.976,-0.9756,-0.9727,-0.9728,-0.9726,-0.9721,-0.9718,-0.9707,-0.9689,-0.9703,-0.9701,-0.9698,-0.9673,-0.9667,-0.9665,-0.9648,-0.9653,-0.9652,-0.9651,-0.9651,-0.9625,-0.9625,0,0,0,0,0,0,-0.9763,-0.9758,-0.9728,-0.9726,-0.9742,-0.972,-0.9717,-0.9711,-0.9689,-0.9686,-0.9698,-0.9697,-0.9669,-0.9666,-0.9664,-0.9655,-0.9652,-0.9651,-0.965,-0.9625,-0.9625,-0.9625,0,0,0,0,0,0,-0.9764,-0.9761,-0.9729,-0.9741,-0.9737,-0.972,-0.9713,-0.971,-0.9704,-0.9686,-0.9683,-0.9696,-0.9669,-0.9665,-0.9654,-0.9654,-0.965,-0.9649,-0.9625,-0.9625,-0.9625,-0.9639,0,0,0,0,0,0,-0.9766,-0.9761,-0.9759,-0.9742,-0.9737,-0.9721,-0.9713,-0.971,-0.9702,-0.9701,-0.9683,-0.968,-0.9668,-0.9656,-0.9653,-0.9652,-0.9648,-0.9625,-0.9625,-0.9625,-0.9638,-0.9639,-0.964,0,0,0,0,0,-0.9767,-0.9764,-0.976,-0.9756,-0.9734,-0.9721,-0.9718,-0.9706,-0.9703,-0.97,-0.9688,-0.968,-0.9654,-0.9655,-0.9652,-0.965,-0.9625,-0.9625,-0.9625,-0.9638,-0.9639,-0.964,0,0,0,0,0,0,-0.9782,-0.9762,-0.9756,-0.9748,-0.9736,-0.9718,-0.9715,-0.9707,-0.9696,-0.9695,-0.968,-0.9676,-0.9666,-0.9657,-0.9658,-0.9643,-0.9639,-0.9638,-0.965,-0.9651,-0.9652,-0.9654,-0.9647,0,0,0,0,0,-0.9785,-0.9776,-0.9759,-0.9753,-0.9747,-0.9732,-0.9726,-0.9718,-0.9705,-0.97,-0.9687,-0.9675,-0.9663,-0.9657,-0.9645,-0.9637,-0.9632,-0.9634,-0.9635,-0.9636,-0.9635,-0.9629,-0.963,-0.9625,-0.9625,-0.9625,0,0,-0.9789,-0.9777,-0.9773,-0.9756,-0.9746,-0.9737,-0.9728,-0.9719,-0.9712,-0.9698,-0.9687,-0.9677,-0.9662,-0.9652,-0.9647,-0.9644,-0.9635,-0.9636,-0.9637,-0.9636,-0.9629,-0.963,-0.963,-0.9625,-0.9625,-0.9625,0,0,-0.9794,-0.9784,-0.9778,-0.9768,-0.9753,-0.9743,-0.9742,-0.9724,-0.9718,-0.9706,-0.9695,-0.9686,-0.9668,-0.9658,-0.965,-0.965,-0.9641,-0.9646,-0.9651,-0.9645,-0.9646,-0.9646,-0.9645,-0.9646,-0.9646,-0.9646,-0.9646,0,-0.9801,-0.9788,-0.9775,-0.9767,-0.9759,-0.9747,-0.974,-0.9731,-0.9713,-0.9708,-0.9705,-0.9681,-0.967,-0.9657,-0.9657,-0.9652,-0.9649,-0.9648,-0.9647,-0.9647,-0.9647,-0.9646,-0.9646,-0.9647,-0.9647,-0.9646,-0.9646,0,-0.9798,-0.9789,-0.9786,-0.9769,-0.9761,-0.9754,-0.9739,-0.9733,-0.9725,-0.9714,-0.9703,-0.9689,-0.9675,-0.9671,-0.9663,-0.9657,-0.9655,-0.965,-0.9645,-0.9648,-0.9647,-0.9647,-0.9648,-0.9647,-0.9647,-0.9647,0,0,-0.9811,-0.9787,-0.9786,-0.9779,-0.9761,-0.9753,-0.9745,-0.9731,-0.9726,-0.9714,-0.9706,-0.969,-0.9685,-0.9676,-0.9667,-0.9662,-0.9662,-0.9657,-0.9657,-0.9658,-0.9654,-0.9658,-0.9658,-0.9657,-0.9657,-0.9657,-0.9655,0,-0.9812,-0.9797,-0.9785,-0.9774,-0.9765,-0.9753,-0.9745,-0.9734,-0.9724,-0.9714,-0.9703,-0.9692,-0.9686,-0.9681,-0.9676,-0.9663,-0.9661,-0.9663,-0.9649,-0.9648,-0.9653,-0.9657,-0.9662,-0.9661,-0.9655,-0.9655,-0.9654,0,-0.9812,-0.9801,-0.9789,-0.9772,-0.9768,-0.9762,-0.9748,-0.9739,-0.9725,-0.9718,-0.9708,-0.9699,-0.9688,-0.9685,-0.967,-0.9672,-0.9665,-0.9658,-0.9658,-0.9655,-0.9651,-0.9655,-0.966,-0.966,-0.9654,-0.9654,-0.9654,0,-0.9822,-0.9804,-0.9795,-0.9788,-0.9768,-0.9764,-0.9755,-0.9741,-0.9734,-0.9722,-0.9716,-0.9703,-0.9696,-0.9685,-0.9672,-0.967,-0.9658,-0.9653,-0.9652,-0.9652,-0.965,-0.965,-0.9654,-0.9646,-0.9646,-0.9646,-0.9646,0,-0.9825,-0.9818,-0.9799,-0.9793,-0.9785,-0.9771,-0.9763,-0.9753,-0.9741,-0.9732,-0.972,-0.9712,-0.9695,-0.9685,-0.9675,-0.9664,-0.9661,-0.9654,-0.9652,-0.9655,-0.9656,-0.965,-0.965,-0.9646,-0.9646,-0.9646,-0.9646,0,-0.9835,-0.9822,-0.981,-0.9793,-0.9788,-0.9783,-0.9767,-0.976,-0.975,-0.9739,-0.9736,-0.9719,-0.9707,-0.9692,-0.9675,-0.9668,-0.9657,-0.9654,-0.9662,-0.9661,-0.966,-0.966,-0.966,-0.9659,-0.9652,-0.9652,-0.9652,0,-0.9837,-0.9832,-0.9813,-0.9807,-0.9799,-0.9789,-0.9781,-0.9767,-0.9759,-0.9742,-0.9738,-0.9724,-0.9713,-0.9693,-0.9679,-0.9666,-0.9661,-0.9662,-0.9659,-0.9663,-0.9661,-0.9661,-0.966,-0.9663,-0.9663,-0.9663,-0.9663,0,-0.9843,-0.9836,-0.9826,-0.9813,-0.9804,-0.9793,-0.9782,-0.9777,-0.9761,-0.9752,-0.974,-0.9731,-0.9713,-0.97,-0.9684,-0.9675,-0.9666,-0.9664,-0.9663,-0.9667,-0.9672,-0.9668,-0.9664,-0.9664,-0.9664,-0.9664,-0.9664,-0.9664,-0.9848,-0.9843,-0.9829,-0.9817,-0.9807,-0.9797,-0.979,-0.9778,-0.9768,-0.9752,-0.9745,-0.9732,-0.9717,-0.9696,-0.9686,-0.9676,-0.9673,-0.9671,-0.9671,-0.967,-0.9671,-0.9674,-0.9673,-0.9673,-0.9673,-0.9673,-0.9673,0,-0.9853,-0.9843,-0.9833,-0.9817,-0.9808,-0.9801,-0.9788,-0.9781,-0.977,-0.9757,-0.9746,-0.9731,-0.9718,-0.9703,-0.9689,-0.9683,-0.9679,-0.968,-0.968,-0.9678,-0.9675,-0.9677,-0.9684,-0.9684,-0.9684,-0.9684,-0.9684,-0.9684,-0.9854,-0.9844,-0.9836,-0.9821,-0.9811,-0.9799,-0.9792,-0.9782,-0.9771,-0.9755,-0.9745,-0.9735,-0.9721,-0.9706,-0.9693,-0.9689,-0.9684,-0.9686,-0.9681,-0.9679,-0.9678,-0.9677,-0.9679,-0.9686,-0.9686,-0.9684,-0.9684,-0.9684]},{"header":{"parameterUnit":"m.s-1","parameterCategory":1,"la1":30.2991,"la2":30.254,"lo1":-89.0895,"lo2":-89.0444,"dy":0.0017,"dx":0.0017,"nx":28,"ny":28,"refTime":"2024-03-29T09:00:00:Z","depth":0,"parameterNumber":3,"parameterNumberName":"V-component_of_WINDS"},"data":[0,0,0,0,0,0,0,0,0,0,0,0,0,0,0,0,0,0,0,0,0,0,0,0,0,0,0,0,0,0,0,0,0,0,0,0,0,0,0,0,0,0,0,0,0,0,0,0,0,0,0,0,0,0,0,0,0,0,3.172,3.1721,0,3.1783,3.1784,3.1785,3.1762,3.1761,3.1759,3.1758,3.1822,3.1825,3.1828,0,0,0,0,0,0,0,0,0,0,0,0,0,3.1578,3.1581,3.172,3.1721,3.1721,3.1783,3.1784,3.1785,3.1762,3.1761,3.1759,3.1757,3.1821,3.1824,3.1828,0,0,0,0,0,0,0,0,0,0,0,0,0,3.1641,3.1582,3.172,3.1718,3.1718,3.1783,3.1784,3.1785,3.1763,3.1761,3.1759,3.1757,3.182,3.1824,3.1829,3.1899,0,0,3.1842,3.1844,0,0,0,0,0,0,0,0,3.1637,3.1646,3.1717,3.1718,3.1719,3.1763,3.1758,3.1823,3.1763,3.1746,3.1758,3.1756,3.1804,3.1809,3.1826,3.1902,3.1904,3.1843,3.1845,3.1847,3.1849,0,0,0,0,0,0,0,3.1633,3.1643,3.1745,3.1718,3.1719,3.1713,3.172,3.177,3.1786,3.1747,3.1746,3.1754,3.1804,3.1822,3.1827,3.1905,3.1843,3.1847,3.1849,3.1851,3.2042,3.2045,0,0,0,0,0,0,3.1628,3.164,3.1743,3.1747,3.1672,3.1718,3.1725,3.1751,3.1785,3.1789,3.1755,3.1752,3.1815,3.1822,3.1829,3.1914,3.1847,3.1852,3.1854,3.204,3.2043,3.2045,0,0,0,0,0,0,3.1625,3.1638,3.174,3.1693,3.1705,3.1722,3.1751,3.1753,3.1771,3.1791,3.1794,3.1771,3.1814,3.1823,3.1882,3.1916,3.1854,3.1858,3.2037,3.2041,3.2044,3.2084,0,0,0,0,0,0,3.1621,3.1637,3.1664,3.1694,3.1708,3.1792,3.1754,3.1756,3.1779,3.1776,3.1807,3.181,3.1813,3.1875,3.1886,3.1921,3.1861,3.2034,3.2039,3.2043,3.208,3.2089,3.2096,0,0,0,0,0,3.1616,3.1672,3.1665,3.1678,3.1742,3.1794,3.1802,3.1805,3.1782,3.1809,3.1822,3.1809,3.1911,3.1881,3.1894,3.1931,3.2032,3.2037,3.2043,3.2076,3.2087,3.2096,0,0,0,0,0,0,3.1646,3.1676,3.1669,3.1736,3.1763,3.179,3.1825,3.1816,3.185,3.1845,3.1846,3.1854,3.1914,3.1928,3.1895,3.2001,3.1968,3.1976,3.1989,3.2,3.2008,3.2003,3.1865,0,0,0,0,0,3.166,3.17,3.1724,3.1781,3.1795,3.1808,3.183,3.183,3.1858,3.1869,3.1886,3.1913,3.1951,3.1976,3.2012,3.2082,3.2088,3.2113,3.2121,3.2128,3.2135,3.2173,3.2185,3.2063,3.2063,3.2063,0,0,3.169,3.1712,3.1737,3.1788,3.1808,3.1849,3.1817,3.1862,3.1892,3.1875,3.1932,3.1946,3.1976,3.2041,3.207,3.2054,3.217,3.2135,3.214,3.2143,3.218,3.2191,3.2202,3.2066,3.2066,3.2065,0,0,3.1766,3.1786,3.1836,3.1857,3.1889,3.1897,3.1909,3.1938,3.1947,3.2004,3.1992,3.2028,3.2094,3.2116,3.2136,3.222,3.2209,3.2232,3.2274,3.2312,3.2321,3.233,3.236,3.2371,3.2239,3.2239,3.2239,0,3.1799,3.1861,3.1863,3.1909,3.1931,3.1918,3.1969,3.1989,3.2031,3.2047,3.2029,3.2111,3.2131,3.22,3.2221,3.2237,3.2251,3.2228,3.232,3.2328,3.2336,3.2365,3.2377,3.2241,3.2241,3.2241,3.224,0,3.19,3.1943,3.1979,3.2021,3.2048,3.2096,3.2105,3.2132,3.2129,3.2139,3.2198,3.222,3.2261,3.2277,3.2275,3.2347,3.2337,3.2319,3.2286,3.2351,3.2378,3.2389,3.2245,3.2244,3.2243,3.2243,0,0,3.1996,3.2038,3.2051,3.207,3.2104,3.2138,3.2185,3.2225,3.2249,3.2278,3.2318,3.2374,3.2358,3.238,3.238,3.2413,3.2479,3.2392,3.2393,3.2408,3.256,3.2573,3.2586,3.2472,3.2474,3.2476,3.2558,0,3.2074,3.2158,3.2161,3.2238,3.2278,3.2266,3.2307,3.2333,3.2343,3.2378,3.239,3.243,3.2406,3.2419,3.2451,3.2464,3.251,3.2458,3.2509,3.2511,3.2502,3.26,3.2614,3.2691,3.2568,3.257,3.2572,0,3.2177,3.2211,3.2291,3.232,3.2337,3.2374,3.2412,3.2445,3.2474,3.2479,3.2505,3.25,3.2548,3.2514,3.258,3.2546,3.2566,3.2576,3.2579,3.2584,3.2545,3.2608,3.2715,3.2727,3.2588,3.2587,3.2586,0,3.224,3.2304,3.2361,3.2377,3.2413,3.2439,3.2455,3.2481,3.2506,3.2538,3.2554,3.2591,3.2612,3.2641,3.2647,3.2621,3.2714,3.2679,3.2719,3.2719,3.274,3.2738,3.2852,3.2753,3.2752,3.2752,3.2752,0,3.2327,3.2377,3.239,3.2425,3.248,3.2483,3.2538,3.2552,3.2575,3.2613,3.2604,3.2639,3.2645,3.2681,3.2685,3.274,3.2749,3.2755,3.2756,3.2756,3.2755,3.277,3.2765,3.2755,3.2755,3.2754,3.2753,0,3.2406,3.2417,3.2478,3.2506,3.2515,3.2554,3.2579,3.2612,3.2622,3.2669,3.268,3.2695,3.2738,3.2746,3.2796,3.2799,3.2864,3.2859,3.2855,3.2855,3.2894,3.2891,3.3021,3.3039,3.2928,3.2929,3.293,0,3.2462,3.25,3.2533,3.2557,3.2575,3.2614,3.2639,3.2644,3.267,3.2706,3.2735,3.2776,3.281,3.2878,3.2893,3.2931,3.2927,3.2971,3.2933,3.2932,3.2929,3.2926,3.293,3.2978,3.2979,3.298,3.2981,0,3.2559,3.2563,3.2599,3.2638,3.2667,3.2698,3.2727,3.2747,3.2755,3.2785,3.2829,3.2855,3.2906,3.2947,3.2986,3.3001,3.2993,3.2992,3.3004,3.3005,3.3001,3.3004,3.2875,3.2989,3.2989,3.2988,3.2988,3.2987,3.2629,3.2662,3.2691,3.2732,3.2754,3.2781,3.2814,3.2828,3.2865,3.2907,3.2907,3.2955,3.2983,3.3033,3.3052,3.3089,3.3075,3.3091,3.3096,3.31,3.3104,3.2995,3.3095,3.3095,3.3095,3.3095,3.3095,0,3.2726,3.2744,3.2781,3.2822,3.2855,3.2844,3.2875,3.2903,3.2945,3.2972,3.3005,3.3055,3.3096,3.3114,3.3154,3.318,3.3177,3.319,3.3189,3.3192,3.3113,3.31,3.3192,3.3192,3.3192,3.3192,3.3192,3.3192,3.278,3.2837,3.2844,3.2911,3.2928,3.2976,3.2995,3.302,3.3041,3.3098,3.3131,3.3143,3.3167,3.3208,3.3245,3.3249,3.3264,3.3279,3.3282,3.3208,3.3198,3.3188,3.3176,3.3282,3.3283,3.3358,3.3359,3.3359]}]]